Location: Altleiningen
(49.5078°N, 8.0741°E)
Time: 03:01:16
(UTC+00:00)

Cosmos 2369 Rocket - Pass Details

Date: 03 March 2021
Orbit: 829 x 852 km, 71.0° (Epoch: 11 April)

Event Time Altitude Azimuth Distance (km) Brightness Sun altitude
Rises 19:44:19 0° 333° (NNW) 3,384 6.0 -24.9°
Reaches altitude 10° 19:48:02 10° 358° (N) 2,448 4.9 -25.4°
Maximum altitude 19:51:00 14° 30° (NNE) 2,152 4.2 -25.9°
Enters shadow 19:51:08 14° 32° (NNE) 2,153 4.2 -25.9°
